Regional Weather Roundup
Issued by NWS

Home | Current Version | Previous Version | Graphics & Text | Print | Product List | Glossary Off
Versions: 1 2 3 4 5 6 7 8 9 10 11 12 13 14 15 16 17 18 19 20 21 22 23 24 25 26 27 28 29 30 31 32 33 34 35 36 37 38 39 40 41 42 43 44 45 46 47 48 49 50

000
ASUS43 KMKX 250910
RWRWI

WISCONSIN REGIONAL WEATHER ROUNDUP
NATIONAL WEATHER SERVICE MILWAUKEE/SULLIVAN WI
400 AM CDT WED APR 25 2018

NOTE: "FAIR" INDICATES FEW OR NO CLOUDS BELOW 12,000 FEET WITH NO
SIGNIFICANT WEATHER AND/OR OBSTRUCTIONS TO VISIBILITY.

WIZ001-002-006>008-014>016-023>028-251000-
NORTHWEST WISCONSIN

CITY           SKY/WX    TMP DP  RH WIND       PRES   REMARKS
SUPERIOR ARPT  FAIR      27  23  82 NW3       30.28S
ASHLAND        FAIR      26  22  84 NW3       30.26F
HAYWARD        FAIR      27  23  85 CALM      30.24F
SIREN          FAIR      31  22  69 NE5       30.26S WCI  27
CUMBERLAND     FAIR      32  23  69 N5        30.24S WCI  27
RICE LAKE      FAIR      34  26  72 N3        30.25S
CHETEK         FAIR      31  27  83 CALM      30.23S
LADYSMITH      FAIR      32  27  80 N7        30.24R WCI  26
EAU CLAIRE     FAIR      35  27  72 N8        30.21S WCI  29
MENOMONIE      FAIR      35  28  76 N6        30.23R WCI  30
NEW RICHMOND   FAIR      33  25  70 N7        30.24S WCI  27
OSCEOLA        FAIR      36  25  66 N5        30.29R WCI  32
$$

WIZ003>005-009-010-017-018-251000-
NORTH CENTRAL WISCONSIN

CITY           SKY/WX    TMP DP  RH WIND       PRES   REMARKS
MANITOWISH WTR FAIR      28  28 100 CALM      30.20S
ARBOR VITAE    FAIR      31  29  94 CALM      30.19S
WOODRUFF       FAIR      31  29  94 CALM      30.19S
RHINELANDER    FAIR      31  29  92 N3        30.18R
EAGLE RIVER    FAIR      29  28  92 N6        30.18R WCI  23
LAND O LAKES   FAIR      30  28  94 CALM      30.20R
PHILLIPS       FAIR      28  27  96 N5        30.20S WCI  23
TOMAHAWK       FAIR      29  28  97 CALM      30.19R
MEDFORD        FAIR      31  29  92 N6        30.18R WCI  25
MERRILL        FAIR      32  32 100 N5        30.19R WCI  27
$$

WIZ029-030-035-036-043>047-251000-
CENTRAL WISCONSIN

CITY           SKY/WX    TMP DP  RH WIND       PRES   REMARKS
WAUSAU         FAIR      35  33  92 N9        30.15R WCI  28
MOSINEE        FAIR      34  34 100 N10       30.17S WCI  26
MARSHFIELD     FAIR      36  34  92 N8        30.15S WCI  30
STEVENS POINT  FAIR      35  35 100 N3        30.16S
WAUPACA        FAIR      41  35  79 CALM      30.16R
WAUTOMA        FAIR      41  35  79 N6        30.15R
WISC RAPIDS    FAIR      38  33  82 N7        30.17R WCI  33
CAMP DOUGLAS   FAIR      37  34  89 CALM      30.16R
$$

WIZ011>013-019>022-031-037>040-048>050-251000-
NORTHEAST WISCONSIN

CITY           SKY/WX    TMP DP  RH WIND       PRES   REMARKS
ANTIGO         FAIR      31  30  95 N8        30.16S WCI  24
SHAWANO        FAIR      38  35  87 N7        30.15S WCI  33
OCONTO         FAIR      37  33  86 N8        30.15R WCI  30
STURGEON BAY   FAIR      36  31  82 N13       30.14R WCI  27
GREEN BAY      FAIR      39  35  86 N12       30.14S WCI  32
MANITOWOC      NOT AVBL
APPLETON       FAIR      37  32  81 N10       30.12S WCI  30
CLINTONVILLE   FAIR      38  34  84 N6        30.15S WCI  34
OSHKOSH        FAIR      40  35  83 N9        30.13R WCI  34
$$

WIZ032>034-041-042-053>061-251000-
SOUTHWEST WISCONSIN

CITY           SKY/WX    TMP DP  RH WIND       PRES   REMARKS
LA CROSSE      FAIR      38  33  82 N9        30.18R WCI  31
SPARTA         FAIR      37  35  92 N7        30.18S WCI  31
VIROQUA        FAIR      39  36  91 N7        30.16R WCI  34
BOSCOBEL       FAIR      43  34  70 CALM      30.15R
PRAIRIE DU CHI FAIR      47  32  57 N5        30.15R
PLATTEVILLE    FAIR      40  33  75 NE7       30.12R
$$

WIZ056-057-062-063-064-067-068-251000-
SOUTH CENTRAL WISCONSIN

CITY           SKY/WX    TMP DP  RH WIND       PRES   REMARKS
REEDSBURG      FAIR      42  37  80 N3        30.14R
BARABOO/DELLS  FAIR      42  34  71 N6        30.14R
LONE ROCK      FAIR      45  35  68 NE3       30.14R
MINERAL POINT  FAIR      45  32  61 NE6       30.12R
MADISON        FAIR      42  30  62 NE9       30.11S
MIDDLETON      FAIR      41  32  70 NE5       30.12S
WATERTOWN      FAIR      42  32  69 N6        30.11R
MONROE         FAIR      45  32  61 NE15      30.09S
JANESVILLE     FAIR      43  32  65 NE6       30.10S
$$

WIZ051-052-058>065-066-070>072-251000-
SOUTHEAST WISCONSIN

CITY           SKY/WX    TMP DP  RH WIND       PRES   REMARKS
MILWAUKEE      FAIR      42  34  73 N15G31    30.09R
WAUKESHA       FAIR      37  32  81 NE7       30.11R WCI  32
MILWAUKEE/TIMM FAIR      41  32  70 N15G23    30.11R
RACINE         FAIR      40  34  79 N17G26    30.09S WCI  31
BURLINGTON     FAIR      43  32  65 N14       30.09S
KENOSHA        FAIR      43  31  62 N15G28    30.07S
FOND DU LAC    FAIR      41  34  76 NE10      30.13R
SHEBOYGAN      FAIR      40  35  83 N6        30.11S
WEST BEND      FAIR      39  34  81 NE3       30.11R
JUNEAU         FAIR      38  32  78 N5        30.12S WCI  35
$$

LSZ147-162-251000-
LAKE SUPERIOR

STATION/POSITION TIME  TEMP    WIND        PRES    WAVE
                       AIR SEA DIR/SP/G            HT/PER
                 (UTC) (F)     (DEG/KT/KT) (MB)    (FT/S)
DEVILS ISLAND    0900   35     350/ 11/ 12 1025.9S
SAXON HARBOR     0830   28     180/  2/  3 1024.0S
$$

LMZ867-665-643>646-251000-
LAKE MICHIGAN

STATION/POSITION TIME  TEMP    WIND        PRES    WAVE
                       AIR SEA DIR/SP/G            HT/PER
                 (UTC) (F)     (DEG/KT/KT) (MB)    (FT/S)
NORTHPORT PIER   0840   35                 1020.0S
KEWAUNEE LAKESHO 0848   40     340/  7/ 12 1019.0F
SHEBOYGAN LAKESH 0900   39      10/ 14/ 16 1020.0F
PORT WASHINGTON  0830   42      20/  7/ 12 1020.7R
MILWAUKEE LAKESH 0850   41     350/ 20/ 23   N/A
KENOSHA   LAKESH 0900   42                 1017.9
$$

TC  - TEMPERATURE IN CELSIUS
VSB - VISIBILITY IN STATUTE MILES
WCI - WIND CHILL INDEX
HX  - HEAT INDEX




USA.gov is the U.S. government's official web portal to all federal, state and local government web resources and services.